[[{"header":{"parameterUnit":"m.s-1","parameterCategory":1,"la1":30.2991,"la2":30.254,"lo1":-89.0895,"lo2":-89.0444,"dy":0.0017,"dx":0.0017,"nx":28,"ny":28,"refTime":"2024-03-30T21:00:00:Z","depth":0,"parameterNumber":2,"parameterNumberName":"U-component_of_WINDS"},"data":[0,0,0,0,0,0,0,0,0,0,0,0,0,0,0,0,0,0,0,0,0,0,0,0,0,0,0,0,0,0,0,0,0,0,0,0,0,0,0,0,0,0,0,0,0,0,0,0,0,0,0,0,0,0,0,0,0,0,-1.5857,-1.5857,0,-1.5816,-1.5815,-1.5815,-1.576,-1.5759,-1.5758,-1.5757,-1.5715,-1.5714,-1.5714,0,0,0,0,0,0,0,0,0,0,0,0,0,-1.5889,-1.5889,-1.5857,-1.5857,-1.5856,-1.5816,-1.5815,-1.5815,-1.576,-1.5759,-1.5758,-1.5757,-1.5715,-1.5714,-1.5714,0,0,0,0,0,0,0,0,0,0,0,0,0,-1.5864,-1.5889,-1.5857,-1.5824,-1.5821,-1.5816,-1.5815,-1.5815,-1.576,-1.5759,-1.5758,-1.5756,-1.5715,-1.5714,-1.5714,-1.5739,0,0,-1.5713,-1.5712,0,0,0,0,0,0,0,0,-1.5866,-1.5863,-1.583,-1.5826,-1.5823,-1.5792,-1.5811,-1.5789,-1.5761,-1.5783,-1.5757,-1.5756,-1.5741,-1.5739,-1.5734,-1.5737,-1.5735,-1.5713,-1.5712,-1.5712,-1.5712,0,0,0,0,0,0,0,-1.5867,-1.5865,-1.5841,-1.5829,-1.5825,-1.5811,-1.5806,-1.5807,-1.577,-1.5781,-1.5777,-1.5773,-1.5739,-1.5734,-1.5732,-1.5734,-1.5713,-1.5712,-1.5712,-1.5712,-1.5755,-1.5756,0,0,0,0,0,0,-1.5874,-1.5866,-1.5842,-1.584,-1.5841,-1.5812,-1.5806,-1.5803,-1.577,-1.5764,-1.5774,-1.5771,-1.5736,-1.5733,-1.5731,-1.5757,-1.5712,-1.5712,-1.5711,-1.5753,-1.5755,-1.5757,0,0,0,0,0,0,-1.5875,-1.5873,-1.5844,-1.5852,-1.5847,-1.5813,-1.581,-1.5803,-1.5798,-1.5765,-1.5758,-1.5776,-1.5735,-1.5731,-1.5737,-1.5755,-1.5711,-1.5711,-1.5752,-1.5754,-1.5756,-1.581,0,0,0,0,0,0,-1.5876,-1.5873,-1.5882,-1.5853,-1.5847,-1.5851,-1.5811,-1.5803,-1.5797,-1.5792,-1.5765,-1.5759,-1.5733,-1.5738,-1.5737,-1.5753,-1.5711,-1.575,-1.5753,-1.5755,-1.5807,-1.5814,-1.582,0,0,0,0,0,-1.5878,-1.5899,-1.5883,-1.588,-1.5858,-1.5852,-1.5849,-1.5819,-1.5799,-1.5808,-1.5787,-1.576,-1.5753,-1.5739,-1.5737,-1.5754,-1.5749,-1.5752,-1.5755,-1.5804,-1.5812,-1.582,0,0,0,0,0,0,-1.5931,-1.5894,-1.5876,-1.5889,-1.5874,-1.5843,-1.5853,-1.5829,-1.582,-1.5816,-1.5779,-1.5773,-1.5783,-1.5769,-1.5754,-1.5776,-1.5747,-1.575,-1.5785,-1.5793,-1.5799,-1.5802,-1.571,0,0,0,0,0,-1.5945,-1.5944,-1.5911,-1.5926,-1.5919,-1.5888,-1.5884,-1.5863,-1.5846,-1.5839,-1.5818,-1.5803,-1.5797,-1.5794,-1.5788,-1.5805,-1.5798,-1.5815,-1.5822,-1.5828,-1.5831,-1.5838,-1.5846,-1.5767,-1.5767,-1.5767,0,0,-1.5972,-1.5952,-1.5953,-1.5936,-1.5922,-1.5922,-1.5883,-1.5884,-1.5883,-1.5839,-1.5843,-1.5828,-1.5808,-1.582,-1.5824,-1.5808,-1.5851,-1.5832,-1.5837,-1.5836,-1.5842,-1.585,-1.5857,-1.5769,-1.5769,-1.5768,0,0,-1.6022,-1.6007,-1.6017,-1.6004,-1.5983,-1.5962,-1.5965,-1.5937,-1.5925,-1.5929,-1.5896,-1.5895,-1.5886,-1.5873,-1.5866,-1.5912,-1.5887,-1.5911,-1.5945,-1.5954,-1.596,-1.5965,-1.5981,-1.5987,-1.5914,-1.5914,-1.5914,0,-1.6059,-1.6056,-1.6025,-1.6028,-1.6021,-1.5982,-1.5992,-1.5981,-1.5959,-1.5956,-1.5939,-1.5927,-1.5911,-1.5919,-1.5931,-1.5926,-1.5927,-1.5913,-1.5961,-1.5966,-1.5971,-1.5986,-1.5992,-1.5917,-1.5916,-1.5916,-1.5916,0,-1.6102,-1.6102,-1.6112,-1.6092,-1.6087,-1.6094,-1.6063,-1.6061,-1.6041,-1.6021,-1.6026,-1.6005,-1.5994,-1.5994,-1.5974,-1.5999,-1.599,-1.5968,-1.5938,-1.5982,-1.5995,-1.6001,-1.5921,-1.592,-1.5919,-1.5918,0,0,-1.6184,-1.6147,-1.6151,-1.6142,-1.6117,-1.6115,-1.6121,-1.6109,-1.6108,-1.6095,-1.6098,-1.6092,-1.6071,-1.6063,-1.6041,-1.6048,-1.6086,-1.6025,-1.6024,-1.6037,-1.6112,-1.6129,-1.6136,-1.6069,-1.607,-1.6071,-1.6114,0,-1.6228,-1.6234,-1.6206,-1.622,-1.6219,-1.6182,-1.6186,-1.6171,-1.6154,-1.615,-1.6131,-1.6127,-1.61,-1.6095,-1.6101,-1.608,-1.61,-1.6077,-1.6071,-1.6072,-1.6077,-1.6143,-1.616,-1.6201,-1.6119,-1.612,-1.612,0,-1.628,-1.627,-1.6284,-1.6258,-1.6256,-1.6261,-1.6248,-1.6245,-1.6228,-1.6215,-1.6206,-1.6181,-1.6184,-1.6156,-1.6159,-1.6144,-1.614,-1.613,-1.6131,-1.6129,-1.6098,-1.6141,-1.6213,-1.6219,-1.6128,-1.6127,-1.6127,0,-1.6338,-1.6327,-1.6334,-1.6327,-1.6297,-1.6301,-1.6289,-1.627,-1.6266,-1.6255,-1.6251,-1.6241,-1.6236,-1.6228,-1.6201,-1.6183,-1.6208,-1.6178,-1.6197,-1.6197,-1.6203,-1.6202,-1.6274,-1.6202,-1.6202,-1.6202,-1.6201,0,-1.639,-1.6399,-1.6359,-1.6363,-1.6373,-1.6341,-1.6352,-1.6336,-1.632,-1.632,-1.6288,-1.6289,-1.6253,-1.625,-1.6229,-1.6235,-1.6233,-1.6222,-1.6216,-1.6225,-1.6226,-1.6221,-1.6217,-1.6203,-1.6203,-1.6203,-1.6202,0,-1.6455,-1.6429,-1.6433,-1.6405,-1.6398,-1.6407,-1.6383,-1.6385,-1.6366,-1.6367,-1.6365,-1.6335,-1.633,-1.6302,-1.6291,-1.6277,-1.629,-1.6279,-1.6296,-1.6292,-1.6312,-1.631,-1.6383,-1.639,-1.6314,-1.6315,-1.6315,0,-1.649,-1.6496,-1.6469,-1.6467,-1.6456,-1.6453,-1.6448,-1.6417,-1.6413,-1.6394,-1.6399,-1.6392,-1.6384,-1.6377,-1.6354,-1.6345,-1.6333,-1.6359,-1.6332,-1.634,-1.6333,-1.6333,-1.6333,-1.6365,-1.6366,-1.6367,-1.6367,0,-1.6553,-1.654,-1.6534,-1.6524,-1.6519,-1.6509,-1.6497,-1.6497,-1.6463,-1.646,-1.6455,-1.6449,-1.6437,-1.643,-1.6418,-1.6405,-1.6381,-1.6377,-1.638,-1.6388,-1.6398,-1.6393,-1.6311,-1.6375,-1.6374,-1.6373,-1.6373,-1.6373,-1.6604,-1.6608,-1.6589,-1.6584,-1.6572,-1.6562,-1.6563,-1.6544,-1.6539,-1.6527,-1.6509,-1.6506,-1.6489,-1.6469,-1.6459,-1.6456,-1.6442,-1.6448,-1.6449,-1.645,-1.6455,-1.6399,-1.6454,-1.6453,-1.6453,-1.6453,-1.6453,0,-1.6666,-1.6652,-1.6647,-1.6632,-1.6628,-1.6606,-1.6592,-1.6589,-1.6587,-1.6573,-1.6566,-1.656,-1.6553,-1.653,-1.6521,-1.6523,-1.6511,-1.6521,-1.6521,-1.6518,-1.6468,-1.6465,-1.6531,-1.6531,-1.6531,-1.6531,-1.6531,-1.6531,-1.6697,-1.6703,-1.6688,-1.6687,-1.6673,-1.667,-1.6664,-1.6655,-1.6643,-1.6638,-1.6632,-1.6617,-1.6599,-1.6588,-1.6581,-1.6574,-1.6572,-1.6586,-1.6576,-1.6529,-1.6522,-1.6514,-1.6512,-1.6586,-1.6586,-1.6626,-1.6626,-1.6626]},{"header":{"parameterUnit":"m.s-1","parameterCategory":1,"la1":30.2991,"la2":30.254,"lo1":-89.0895,"lo2":-89.0444,"dy":0.0017,"dx":0.0017,"nx":28,"ny":28,"refTime":"2024-03-30T21:00:00:Z","depth":0,"parameterNumber":3,"parameterNumberName":"V-component_of_WINDS"},"data":[0,0,0,0,0,0,0,0,0,0,0,0,0,0,0,0,0,0,0,0,0,0,0,0,0,0,0,0,0,0,0,0,0,0,0,0,0,0,0,0,0,0,0,0,0,0,0,0,0,0,0,0,0,0,0,0,0,0,3.3219,3.3219,0,3.3185,3.3185,3.3184,3.3157,3.3157,3.3156,3.3156,3.312,3.3119,3.3118,0,0,0,0,0,0,0,0,0,0,0,0,0,3.3261,3.326,3.3219,3.3219,3.3218,3.3185,3.3185,3.3184,3.3157,3.3157,3.3156,3.3156,3.312,3.3119,3.3118,0,0,0,0,0,0,0,0,0,0,0,0,0,3.3236,3.326,3.3219,3.3201,3.3199,3.3185,3.3185,3.3184,3.3157,3.3157,3.3156,3.3156,3.312,3.3119,3.3118,3.312,0,0,3.3115,3.3114,0,0,0,0,0,0,0,0,3.3238,3.3235,3.3204,3.3202,3.32,3.3175,3.3186,3.3162,3.3157,3.3173,3.3156,3.3156,3.3138,3.3136,3.313,3.3118,3.3116,3.3115,3.3114,3.3114,3.3113,0,0,0,0,0,0,0,3.324,3.3236,3.3206,3.3204,3.3201,3.3194,3.319,3.3181,3.3158,3.3171,3.3169,3.3166,3.3137,3.3131,3.3129,3.3116,3.3115,3.3114,3.3113,3.3113,3.3105,3.3106,0,0,0,0,0,0,3.3244,3.3238,3.3207,3.3205,3.3218,3.3194,3.3189,3.3183,3.3158,3.3154,3.3166,3.3165,3.3133,3.313,3.3128,3.3129,3.3114,3.3113,3.3112,3.3105,3.3105,3.3106,0,0,0,0,0,0,3.3245,3.3242,3.3208,3.3221,3.3216,3.3194,3.3187,3.3183,3.3177,3.3154,3.315,3.3165,3.3133,3.3129,3.3122,3.3127,3.3112,3.3111,3.3104,3.3105,3.3106,3.3131,0,0,0,0,0,0,3.3247,3.3242,3.3242,3.3221,3.3215,3.3203,3.3187,3.3182,3.3175,3.3173,3.3152,3.3148,3.3132,3.3124,3.3121,3.3126,3.311,3.3104,3.3105,3.3105,3.313,3.3133,3.3135,0,0,0,0,0,3.3248,3.325,3.3242,3.3239,3.3215,3.3204,3.32,3.3183,3.3176,3.3176,3.3162,3.3148,3.3128,3.3124,3.312,3.3124,3.3103,3.3104,3.3105,3.3128,3.3132,3.3135,0,0,0,0,0,0,3.3271,3.3247,3.3238,3.3233,3.3221,3.3199,3.3198,3.3187,3.3176,3.3174,3.3153,3.3148,3.3144,3.3133,3.313,3.3126,3.3114,3.3114,3.3133,3.3136,3.3138,3.3141,3.3109,0,0,0,0,0,3.3276,3.3269,3.3248,3.3246,3.324,3.3221,3.3215,3.3203,3.3189,3.3183,3.3169,3.3156,3.3146,3.314,3.313,3.3128,3.3124,3.313,3.3132,3.3135,3.3135,3.3135,3.3138,3.3109,3.3109,3.3109,0,0,3.3285,3.3271,3.3268,3.325,3.3239,3.3233,3.3216,3.3209,3.3205,3.3182,3.3175,3.3164,3.3148,3.3145,3.3142,3.3136,3.3142,3.3136,3.3138,3.3137,3.3136,3.3139,3.3141,3.311,3.311,3.311,0,0,3.3299,3.3287,3.3285,3.3275,3.3259,3.3247,3.3246,3.3227,3.3219,3.3212,3.3196,3.319,3.3174,3.3164,3.3156,3.3169,3.3157,3.3167,3.318,3.318,3.3183,3.3185,3.319,3.3192,3.3167,3.3167,3.3167,0,3.3312,3.3302,3.3285,3.328,3.3273,3.3254,3.3252,3.3243,3.3225,3.3221,3.3214,3.3195,3.3183,3.3177,3.3181,3.3175,3.3174,3.3169,3.3184,3.3186,3.3187,3.3192,3.3194,3.3169,3.3169,3.3168,3.3168,0,3.332,3.3313,3.3313,3.3297,3.3291,3.3287,3.327,3.3265,3.3255,3.3243,3.3237,3.3222,3.321,3.3208,3.3196,3.3201,3.3198,3.3188,3.3175,3.3191,3.3196,3.3198,3.3171,3.317,3.317,3.3169,0,0,3.3345,3.3322,3.3322,3.3316,3.3298,3.3293,3.3289,3.3278,3.3275,3.3263,3.326,3.3249,3.324,3.3232,3.322,3.322,3.3233,3.321,3.3209,3.3215,3.3239,3.3247,3.3249,3.3225,3.3225,3.3226,3.324,0,3.3356,3.3349,3.3335,3.3332,3.3326,3.331,3.3307,3.3296,3.3286,3.328,3.3268,3.3261,3.3249,3.3245,3.3244,3.3232,3.3237,3.323,3.3222,3.3222,3.3227,3.3251,3.3259,3.3274,3.3242,3.3242,3.3242,0,3.3368,3.3359,3.3356,3.3341,3.3338,3.3336,3.3326,3.332,3.3308,3.3301,3.3293,3.3281,3.3277,3.3266,3.3261,3.3256,3.3253,3.3246,3.3247,3.3245,3.3233,3.3251,3.3278,3.328,3.3245,3.3245,3.3244,0,3.3388,3.3375,3.3372,3.3367,3.3349,3.3348,3.3341,3.3329,3.3324,3.3315,3.3312,3.3302,3.3297,3.329,3.3276,3.3269,3.3273,3.3261,3.3267,3.3268,3.3268,3.3268,3.3295,3.3266,3.3266,3.3266,3.3265,0,3.3402,3.3401,3.3381,3.3379,3.3379,3.3363,3.3362,3.3353,3.3343,3.334,3.3324,3.3322,3.3303,3.3298,3.3287,3.3285,3.3283,3.3277,3.3274,3.3278,3.3279,3.3275,3.3274,3.3266,3.3266,3.3266,3.3266,0,3.3423,3.341,3.3406,3.3391,3.3387,3.3387,3.3373,3.3372,3.3361,3.3358,3.3356,3.334,3.3333,3.3319,3.3308,3.3301,3.3302,3.3297,3.3307,3.3305,3.3313,3.3312,3.3338,3.3341,3.3309,3.331,3.331,0,3.3433,3.3432,3.3417,3.3414,3.3408,3.3403,3.3399,3.3384,3.338,3.3368,3.3368,3.3361,3.3354,3.3345,3.3333,3.3325,3.332,3.3329,3.3318,3.3324,3.3321,3.3321,3.3322,3.3332,3.3332,3.3332,3.3333,0,3.3452,3.3446,3.344,3.3433,3.3429,3.3422,3.3414,3.3413,3.3396,3.3393,3.3387,3.3382,3.3373,3.3367,3.3358,3.335,3.3339,3.3337,3.3338,3.3342,3.3348,3.3346,3.3314,3.3336,3.3335,3.3335,3.3335,3.3335,3.3468,3.3467,3.3458,3.3452,3.3446,3.344,3.3438,3.3428,3.3424,3.3415,3.3407,3.3403,3.3393,3.338,3.3373,3.337,3.3364,3.3366,3.3366,3.3367,3.3369,3.3349,3.3368,3.3368,3.3368,3.3368,3.3368,0,3.3487,3.3481,3.3476,3.3467,3.3463,3.3455,3.3446,3.3444,3.344,3.3433,3.3427,3.3422,3.3416,3.3404,3.3398,3.3398,3.3393,3.3396,3.3396,3.3395,3.3374,3.3374,3.3401,3.3401,3.3401,3.3401,3.3401,3.3401,3.3496,3.3495,3.3489,3.3485,3.3478,3.3475,3.3471,3.3466,3.346,3.3455,3.345,3.3443,3.3434,3.3427,3.3422,3.3419,3.3418,3.3423,3.3419,3.3399,3.3396,3.3393,3.3393,3.3423,3.3423,3.3439,3.344,3.344]}]]